EST,Max TemperatureF,Mean TemperatureF,Min TemperatureF,Max Dew PointF,MeanDew PointF,Min DewpointF,Max Humidity, Mean Humidity, Min Humidity, Max Sea Level PressureIn, Mean Sea Level PressureIn, Min Sea Level PressureIn, Max VisibilityMiles, Mean VisibilityMiles, Min VisibilityMiles, Max Wind SpeedMPH, Mean Wind SpeedMPH, Max Gust SpeedMPH,PrecipitationIn, CloudCover, Events, WindDirDegrees
2013-12-1,53,42,30,45,38,28,100,79,61,30.40,30.16,30.03,10,7,0,10,6,17,0.00,7,Fog-Rain,142
2013-12-2,46,38,30,39,33,26,100,90,71,30.02,29.98,29.91,10,4,0,6,1,,0.00,5,Fog,23
2013-12-3,51,38,26,39,32,22,93,82,50,30.01,29.92,29.89,10,6,2,10,3,,0.00,3,,348
2013-12-4,51,38,25,45,33,21,93,78,54,30.18,30.12,30.03,10,8,4,6,1,,0.00,3,,105
2013-12-5,61,54,46,55,52,46,97,90,81,30.17,30.07,29.97,10,6,1,10,5,20,0.00,8,Rain,178
2013-12-6,57,48,39,55,44,36,100,90,82,30.12,30.03,29.92,10,5,1,15,9,21,0.34,8,Rain,330
2013-12-7,41,36,30,36,29,17,93,75,54,30.50,30.25,30.08,10,8,3,21,10,28,0.23,6,Rain,345
2013-12-8,34,26,19,29,22,12,87,72,54,30.60,30.52,30.41,10,7,2,12,5,17,0.02,6,Rain-Snow,36
2013-12-9,50,42,33,49,37,28,100,91,81,30.41,30.13,29.91,10,3,1,15,10,24,0.35,7,Rain-Snow,27
2013-12-10,37,32,28,32,29,19,92,85,69,30.12,29.94,29.85,10,6,0,13,7,,0.11,5,Fog-Rain-Snow,278
2013-12-11,35,30,25,17,15,13,63,54,42,30.33,30.24,30.14,10,10,10,17,11,22,0.00,0,,253
2013-12-12,27,20,12,15,9,3,74,58,41,30.34,30.26,30.17,10,10,10,14,6,21,0.00,2,,292
2013-12-13,35,28,21,14,9,4,72,48,37,30.35,30.19,30.13,10,10,10,20,11,32,0.00,1,,265
2013-12-14,43,32,21,40,22,12,93,79,55,30.54,30.37,29.91,10,4,1,17,11,32,0.44,7,Rain-Snow,56
2013-12-15,54,43,32,52,37,21,94,84,61,29.88,29.59,29.43,10,6,1,20,13,30,0.99,7,Rain,308
2013-12-16,32,21,10,20,11,4,77,55,38,30.25,30.06,29.84,10,10,10,18,10,28,0.00,1,,280
2013-12-17,45,28,10,43,26,3,93,84,63,30.26,30.06,29.88,10,6,1,16,5,25,0.38,8,Rain-Snow,51
2013-12-18,36,30,21,24,20,14,86,71,52,30.17,30.01,29.89,10,10,10,16,10,23,0.00,4,,312
2013-12-19,55,36,17,33,24,13,85,60,35,30.19,30.13,30.04,10,10,8,21,6,30,0.00,0,,241
2013-12-20,63,46,30,45,36,23,90,66,41,30.14,30.07,30.01,10,10,6,16,5,23,0.00,1,,220
2013-12-21,55,52,48,52,47,45,94,85,74,30.04,29.99,29.95,10,8,6,16,9,26,0.00,2,,222
2013-12-22,61,57,53,54,53,49,100,90,75,30.01,29.94,29.88,10,4,0,17,13,32,0.00,7,Fog-Rain,221
2013-12-23,55,48,41,55,49,35,100,91,76,30.11,30.01,29.91,10,6,0,17,6,24,0.52,8,Fog-Rain,269
2013-12-24,39,34,28,33,21,17,80,59,43,30.29,30.18,30.07,10,8,0,16,12,28,0.01,5,Rain-Snow,337
2013-12-25,27,24,21,16,10,7,69,56,44,30.55,30.47,30.31,10,10,10,20,9,25,0.00,1,,326
2013-12-26,39,32,19,32,24,16,85,70,57,30.46,30.28,30.15,10,10,7,15,4,22,0.00,5,Rain,305
2013-12-27,39,28,16,24,16,12,88,66,38,30.35,30.31,30.27,10,10,6,15,4,20,0.00,0,,264
2013-12-28,48,32,17,36,27,11,84,70,48,30.30,30.18,30.09,10,10,9,18,5,24,0.00,0,,231
2013-12-29,55,47,39,54,42,33,94,86,70,30.08,29.69,29.36,10,6,2,22,8,34,1.43,6,Rain,213
2013-12-30,45,34,21,39,26,6,92,70,45,30.19,29.97,29.69,10,10,10,20,9,28,0.00,3,,304
2013-12-31,30,24,17,18,11,6,65,55,41,30.27,30.17,30.08,10,10,10,14,7,17,0.00,2,,292